CW5316 Weather Reports


Display with metric or nautical units.
time (UTC)temp
F
wind
direction
speed
MPH
gust
MPH
rain 1hr
in
rain 24hr
in
rain mn
in
humidity
%
barometer
mb
20260831002024 65 0 0.0 2.0 0.00 0.01 0.00 61 1019.0
20260831001552 66 234 0.0 2.0 0.00 0.01 0.00 61 1019.1
20260831001023 66 232 0.0 3.0 0.00 0.01 0.00 59 1019.0
20260831000524 66 228 0.0 3.0 0.00 0.01 0.00 59 1018.9
20260831000049 66 0 0.0 3.0 0.00 0.01 0.00 60 1019.0
20260830235527 66 273 1.0 3.0 0.00 0.01 0.00 60 1018.9
20260830235023 66 0 0.0 3.0 0.00 0.01 0.00 59 1019.0
20260830234607 66 263 0.0 4.0 0.00 0.01 0.00 59 1019.1
20260830234024 66 265 1.0 4.0 0.00 0.01 0.00 59 1019.0
20260830233527 66 0 1.0 4.0 0.00 0.01 0.00 58 1019.0
20260830233046 66 251 1.0 4.0 0.00 0.01 0.00 57 1019.1
20260830232523 66 265 1.0 4.0 0.00 0.01 0.00 57 1019.2
20260830232023 67 276 0.0 3.0 0.00 0.01 0.00 59 1019.2
20260830231553 66 211 0.0 2.0 0.00 0.01 0.00 60 1019.2
20260830231023 66 0 0.0 2.0 0.00 0.01 0.00 62 1019.3
20260830230525 65 0 0.0 2.0 0.00 0.01 0.00 61 1019.6
20260830230046 65 0 0.0 3.0 0.00 0.01 0.00 60 1019.5
20260830225523 66 302 0.0 5.0 0.00 0.01 0.00 57 1019.6
20260830225026 67 0 0.0 5.0 0.00 0.01 0.00 57 1019.6
20260830224542 68 195 1.0 4.0 0.00 0.01 0.00 55 1019.6
20260830224023 67 268 0.0 4.0 0.00 0.01 0.00 56 1019.5
20260830223523 66 109 1.0 8.0 0.00 0.01 0.00 57 1019.5
20260830223050 65 241 1.0 8.0 0.00 0.01 0.00 60 1019.5
20260830222519 65 127 0.0 5.0 0.00 0.01 0.00 59 1019.5
20260830222027 65 0 1.0 5.0 0.00 0.01 0.00 59 1019.6
20260830221552 66 0 1.0 5.0 0.00 0.01 0.00 58 1019.6
20260830221025 66 0 0.0 3.0 0.00 0.01 0.00 60 1019.7
20260830220525 65 0 0.0 3.0 0.00 0.01 0.00 60 1019.7
20260830220047 66 257 1.0 3.0 0.00 0.01 0.00 60 1019.8
20260830215525 64 0 1.0 3.0 0.00 0.08 0.00 61 1019.8
20260830215025 65 0 0.0 3.0 0.00 0.08 0.00 60 1019.9
20260830214542 65 0 0.0 4.0 0.00 0.08 0.00 56 1020.0
20260830214023 65 184 0.0 4.0 0.00 0.08 0.00 58 1020.0
20260830213523 65 271 1.0 3.0 0.00 0.08 0.00 59 1020.2
20260830213049 65 0 0.0 5.0 0.00 0.08 0.00 61 1020.1
20260830212523 65 0 0.0 6.0 0.00 0.08 0.00 61 1020.2
20260830212025 64 262 1.0 6.0 0.00 0.08 0.00 63 1020.3
20260830211546 64 94 0.0 3.0 0.00 0.08 0.00 61 1020.2
20260830211024 64 0 0.0 6.0 0.00 0.08 0.00 59 1020.3
20260830210525 64 302 2.0 6.0 0.00 0.08 0.00 61 1020.3
20260830210046 65 204 0.0 4.0 0.00 0.08 0.00 62 1020.3
20260830205527 65 0 0.0 4.0 0.00 0.13 0.00 62 1020.4
20260830205026 64 139 1.0 4.0 0.00 0.13 0.00 64 1020.4
20260830204539 64 223 0.0 3.0 0.00 0.13 0.00 66 1020.4
20260830204023 63 0 0.0 2.0 0.00 0.13 0.00 66 1020.5
20260830203524 63 249 0.0 2.0 0.00 0.13 0.00 67 1020.5
20260830203050 63 187 0.0 3.0 0.00 0.13 0.00 66 1020.5
20260830202528 64 0 0.0 4.0 0.00 0.13 0.00 65 1020.4
20260830202021 64 90 0.0 4.0 0.00 0.13 0.00 63 1020.4
20260830201608 63 292 0.0 4.0 0.00 0.13 0.00 65 1020.4
20260830201022 61 0 0.0 4.0 0.00 0.13 0.00 66 1020.5
20260830200524 62 0 0.0 5.0 0.00 0.13 0.00 66 1020.5
20260830200047 63 221 0.0 5.0 0.00 0.13 0.00 67 1020.5
20260830195524 62 0 0.0 5.0 0.00 0.24 0.00 67 1020.5
20260830195024 61 0 0.0 3.0 0.00 0.24 0.00 67 1020.5
20260830194548 61 0 0.0 3.0 0.00 0.24 0.00 67 1020.5
20260830194023 62 0 0.0 4.0 0.00 0.24 0.00 66 1020.5
20260830193524 62 0 0.0 4.0 0.00 0.24 0.00 67 1020.6
20260830193051 62 123 0.0 4.0 0.00 0.24 0.00 70 1020.6
20260830192522 61 211 0.0 4.0 0.00 0.24 0.00 67 1020.5
20260830192023 62 211 1.0 4.0 0.00 0.24 0.00 66 1020.6
20260830191549 60 0 0.0 4.0 0.00 0.24 0.00 71 1020.6
20260830191026 60 219 1.0 4.0 0.00 0.24 0.00 69 1020.7
20260830190521 60 0 1.0 6.0 0.00 0.24 0.00 69 1020.6
20260830190046 60 0 1.0 6.0 0.00 0.24 0.00 70 1020.7
20260830185524 60 109 1.0 8.0 0.00 0.24 0.00 69 1020.8
20260830185022 60 150 4.0 8.0 0.00 0.24 0.00 72 1020.8
20260830184545 60 188 1.0 4.0 0.00 0.24 0.00 73 1020.9
20260830184024 59 204 1.0 4.0 0.00 0.24 0.00 74 1020.8
20260830183530 58 111 0.0 3.0 0.00 0.24 0.00 76 1020.9
20260830183048 58 0 1.0 3.0 0.00 0.24 0.00 78 1021.0
20260830182526 58 194 0.0 2.0 0.00 0.24 0.00 79 1021.0
20260830182026 57 0 0.0 1.0 0.00 0.24 0.00 78 1021.0
20260830181603 57 0 0.0 1.0 0.00 0.24 0.00 79 1021.0
20260830181023 57 0 0.0 1.0 0.00 0.24 0.00 77 1021.1
20260830180525 57 0 0.0 1.0 0.00 0.24 0.00 77 1021.0
20260830180049 57 0 0.0 3.0 0.00 0.24 0.00 77 1021.0
20260830175524 57 0 0.0 6.0 0.00 0.24 0.00 77 1020.9
20260830175029 57 102 2.0 6.0 0.00 0.24 0.00 76 1020.9
20260830174542 57 192 1.0 4.0 0.00 0.24 0.00 77 1020.9
20260830174024 57 0 1.0 3.0 0.00 0.24 0.00 77 1020.9
20260830173524 57 0 0.0 3.0 0.00 0.24 0.00 78 1020.9
20260830173049 57 119 0.0 3.0 0.00 0.24 0.00 78 1020.9
20260830172523 56 0 0.0 4.0 0.00 0.24 0.00 77 1020.9
20260830172024 57 0 0.0 4.0 0.00 0.24 0.00 79 1020.9
20260830171550 57 0 0.0 6.0 0.00 0.24 0.00 78 1020.8
20260830171026 57 285 0.0 6.0 0.00 0.24 0.00 79 1020.7
20260830170524 57 219 2.0 6.0 0.00 0.24 0.00 79 1020.7
20260830170047 58 0 0.0 6.0 0.00 0.24 0.00 79 1020.7
20260830165523 57 108 1.0 6.0 0.00 0.32 0.00 81 1020.7
20260830165022 56 190 0.0 3.0 0.00 0.32 0.00 80 1020.7
20260830164552 56 128 0.0 3.0 0.00 0.32 0.00 81 1020.5
20260830164023 56 0 0.0 6.0 0.00 0.32 0.00 81 1020.6
20260830163523 55 0 1.0 6.0 0.00 0.32 0.00 82 1020.6
20260830163051 56 0 0.0 4.0 0.00 0.32 0.00 82 1020.6
20260830162530 56 0 0.0 4.0 0.00 0.32 0.00 80 1020.6
20260830162025 56 0 0.0 3.0 0.00 0.32 0.00 82 1020.7
20260830161547 55 0 0.0 4.0 0.00 0.32 0.00 82 1020.6
20260830161026 55 0 0.0 4.0 0.00 0.32 0.00 83 1020.6
20260830160526 55 0 0.0 4.0 0.00 0.32 0.00 84 1020.6
20260830160046 55 223 0.0 4.0 0.00 0.32 0.00 85 1020.6
20260830155526 55 167 0.0 4.0 0.00 0.63 0.00 87 1020.6
20260830155025 54 111 1.0 4.0 0.00 0.63 0.00 86 1020.5
20260830154543 55 111 2.0 4.0 0.00 0.63 0.00 84 1020.5
20260830154024 54 109 1.0 3.0 0.00 0.63 0.00 84 1020.5
20260830153523 54 0 0.0 2.0 0.00 0.63 0.00 86 1020.5
20260830153051 54 0 0.0 2.0 0.00 0.63 0.00 87 1020.4
20260830152525 53 0 0.0 2.0 0.00 0.63 0.00 88 1020.6
20260830152023 53 0 0.0 1.0 0.00 0.63 0.00 88 1020.5
20260830151544 53 0 0.0 2.0 0.00 0.63 0.00 89 1020.5
20260830151029 53 0 0.0 2.0 0.00 0.63 0.00 90 1020.5
20260830150523 52 0 0.0 1.0 0.00 0.63 0.00 91 1020.6
20260830150056 52 0 0.0 1.0 0.00 0.63 0.00 92 1020.7
20260830145524 52 0 0.0 3.0 0.00 0.75 0.00 93 1020.6
20260830145027 52 0 0.0 3.0 0.00 0.75 0.00 93 1020.6
20260830144550 52 127 1.0 3.0 0.00 0.75 0.00 94 1020.5
20260830144030 51 0 0.0 2.0 0.00 0.75 0.00 94 1020.6
20260830143526 51 0 0.0 1.0 0.00 0.75 0.00 94 1020.4
20260830143052 51 0 0.0 1.0 0.00 0.75 0.00 94 1020.5
20260830142527 51 0 0.0 0.0 0.00 0.75 0.00 94 1020.5
20260830142025 51 0 0.0 0.0 0.00 0.75 0.00 94 1020.4
20260830141540 51 0 0.0 0.0 0.00 0.75 0.00 94 1020.4
20260830141028 51 0 0.0 0.0 0.00 0.75 0.00 94 1020.5
20260830140523 51 0 0.0 0.0 0.00 0.75 0.00 95 1020.5
20260830140053 51 0 0.0 0.0 0.00 0.75 0.00 94 1020.4
20260830135527 51 0 0.0 0.0 0.00 0.75 0.00 94 1020.3
20260830135023 51 0 0.0 0.0 0.00 0.75 0.00 95 1020.3
20260830134545 51 0 0.0 0.0 0.00 0.75 0.00 95 1020.3
20260830134023 51 0 0.0 0.0 0.00 0.75 0.00 95 1020.2
20260830133527 51 0 0.0 0.0 0.00 0.75 0.00 94 1020.2
20260830133049 51 0 0.0 0.0 0.00 0.75 0.00 94 1020.2
20260830132524 51 0 0.0 0.0 0.00 0.75 0.00 94 1020.2
20260830132023 51 0 0.0 0.0 0.00 0.75 0.00 94 1020.2
20260830131546 51 0 0.0 0.0 0.00 0.75 0.00 93 1020.1
20260830131024 51 0 0.0 0.0 0.00 0.75 0.00 93 1020.2
20260830130533 51 0 0.0 0.0 0.00 0.75 0.00 93 1020.2
20260830130054 51 0 0.0 0.0 0.00 0.75 0.00 93 1020.2
20260830125526 51 0 0.0 0.0 0.00 0.75 0.00 93 1020.3
20260830125025 51 0 0.0 0.0 0.00 0.75 0.00 93 1020.3
20260830124558 51 0 0.0 0.0 0.00 0.75 0.00 93 1020.3
20260830124029 51 0 0.0 0.0 0.00 0.75 0.00 92 1020.3
20260830123526 52 0 0.0 0.0 0.00 0.75 0.00 93 1020.3
20260830123048 52 0 0.0 0.0 0.00 0.75 0.00 93 1020.3
20260830122523 52 0 0.0 0.0 0.00 0.75 0.00 92 1020.3
20260830122022 52 0 0.0 0.0 0.00 0.75 0.00 92 1020.2
20260830121551 52 0 0.0 0.0 0.00 0.75 0.00 92 1020.2
20260830121024 52 0 0.0 0.0 0.00 0.75 0.00 92 1020.2
20260830120530 52 0 0.0 0.0 0.00 0.75 0.00 92 1020.3
20260830120053 52 0 0.0 0.0 0.00 0.75 0.00 92 1020.2
20260830115529 52 0 0.0 0.0 0.00 0.75 0.00 93 1020.1
20260830115025 51 0 0.0 0.0 0.00 0.75 0.00 93 1020.2
20260830114556 52 0 0.0 0.0 0.00 0.75 0.00 93 1020.2
20260830114027 52 0 0.0 0.0 0.00 0.75 0.00 93 1020.1
20260830113523 52 0 0.0 0.0 0.00 0.75 0.00 93 1020.1
20260830113039 52 0 0.0 0.0 0.00 0.75 0.00 93 1020.0
20260830112523 52 0 0.0 0.0 0.00 0.75 0.00 93 1020.0
20260830112023 51 0 0.0 0.0 0.00 0.75 0.00 93 1020.0
20260830111551 52 0 0.0 1.0 0.00 0.75 0.00 93 1020.1
20260830111022 52 0 0.0 1.0 0.00 0.75 0.00 93 1020.1
20260830110524 52 0 0.0 1.0 0.00 0.75 0.00 93 1020.2
20260830110045 52 0 0.0 1.0 0.00 0.75 0.00 92 1020.2
20260830105525 52 0 0.0 1.0 0.00 0.75 0.00 92 1020.2
20260830105024 52 0 0.0 1.0 0.00 0.75 0.00 92 1020.2
20260830104544 52 0 0.0 1.0 0.00 0.75 0.00 92 1020.1
20260830104024 52 0 0.0 0.0 0.00 0.75 0.00 91 1020.1
20260830103523 52 0 0.0 2.0 0.00 0.75 0.00 91 1020.1
20260830103040 52 0 0.0 2.0 0.00 0.75 0.00 91 1020.1
20260830102523 52 0 0.0 1.0 0.00 0.75 0.00 90 1020.1
20260830102022 52 0 0.0 1.0 0.00 0.75 0.00 90 1020.1
20260830101551 52 0 0.0 1.0 0.00 0.75 0.00 90 1020.1
20260830101022 52 0 0.0 2.0 0.00 0.75 0.00 90 1020.1
20260830100524 52 171 0.0 2.0 0.00 0.75 0.00 91 1020.1
20260830100047 52 0 0.0 2.0 0.00 0.75 0.00 90 1020.1
20260830095524 52 0 0.0 2.0 0.00 0.77 0.00 91 1020.1
20260830095020 53 0 0.0 2.0 0.00 0.77 0.00 90 1020.0
20260830094605 53 205 0.0 2.0 0.00 0.77 0.00 90 1020.1
20260830094022 53 0 0.0 2.0 0.00 0.77 0.00 88 1020.1
20260830093526 53 0 0.0 2.0 0.00 0.77 0.00 88 1020.1
20260830093049 53 0 0.0 1.0 0.00 0.77 0.00 88 1020.0
20260830092523 53 0 0.0 3.0 0.00 0.77 0.00 87 1020.1
20260830092025 53 0 0.0 3.0 0.00 0.77 0.00 86 1020.2
20260830091546 53 0 0.0 3.0 0.00 0.77 0.00 85 1020.1
20260830091024 53 0 0.0 5.0 0.00 0.77 0.00 86 1020.2
20260830090525 53 0 0.0 5.0 0.00 0.77 0.00 86 1020.2
20260830090050 53 0 0.0 3.0 0.00 0.77 0.00 85 1020.2
20260830085525 53 0 0.0 3.0 0.00 0.79 0.00 85 1020.0
20260830085022 53 0 0.0 3.0 0.00 0.79 0.00 86 1020.1
20260830084546 53 0 0.0 7.0 0.00 0.79 0.00 86 1019.9
20260830084020 54 0 0.0 9.0 0.00 0.79 0.00 85 1019.9
20260830083522 54 0 2.0 9.0 0.00 0.79 0.00 84 1020.0
20260830083058 54 0 1.0 7.0 0.00 0.79 0.00 85 1020.0
20260830082524 54 239 2.0 7.0 0.00 0.79 0.00 85 1019.9
20260830082024 54 0 1.0 7.0 0.00 0.79 0.00 85 1019.9
20260830081553 54 238 1.0 6.0 0.00 0.79 0.00 86 1019.9
20260830081023 54 178 2.0 7.0 0.00 0.79 0.00 85 1019.9
20260830080524 54 0 1.0 10.0 0.00 0.79 0.00 85 1019.9
20260830080056 54 188 1.0 10.0 0.00 0.79 0.00 85 1020.0
20260830075522 54 248 1.0 4.0 0.00 0.79 0.00 85 1020.1
20260830075021 54 0 0.0 8.0 0.00 0.79 0.00 85 1020.1
20260830074604 54 212 1.0 8.0 0.00 0.79 0.00 84 1020.0
20260830074024 54 209 2.0 8.0 0.00 0.79 0.00 84 1020.0
20260830073525 54 202 2.0 8.0 0.00 0.79 0.00 83 1019.9
20260830073056 54 248 2.0 8.0 0.00 0.79 0.00 84 1019.9
20260830072524 54 311 2.0 8.0 0.00 0.79 0.00 84 1019.7
20260830072025 54 269 3.0 9.0 0.00 0.79 0.00 84 1019.7
20260830071544 54 225 2.0 9.0 0.00 0.79 0.00 84 1019.7
20260830071022 54 192 1.0 9.0 0.00 0.79 0.00 84 1019.8
20260830070524 54 275 2.0 9.0 0.00 0.79 0.00 84 1019.9
20260830070052 54 0 1.0 8.0 0.00 0.79 0.00 84 1019.9
20260830065526 54 187 1.0 7.0 0.00 0.79 0.79 84 1019.9
20260830065022 54 0 0.0 7.0 0.00 0.79 0.79 84 1020.0
20260830064549 54 0 1.0 6.0 0.00 0.79 0.79 84 1019.9
20260830064025 54 205 2.0 6.0 0.00 0.79 0.79 84 1019.7
20260830063522 54 346 2.0 6.0 0.00 0.79 0.79 85 1019.7
20260830063048 54 0 1.0 6.0 0.00 0.79 0.79 86 1019.8
20260830062524 54 0 0.0 7.0 0.00 0.79 0.79 89 1019.7
20260830062024 54 230 1.0 7.0 0.00 0.79 0.79 90 1019.6
20260830061607 53 121 2.0 7.0 0.00 0.79 0.79 93 1019.6
20260830061023 53 0 0.0 3.0 0.00 0.79 0.79 95 1019.7
20260830060524 52 113 0.0 3.0 0.00 0.79 0.79 95 1019.7
20260830060040 53 142 0.0 6.0 0.00 0.79 0.79 96 1019.7
20260830055523 53 111 0.0 6.0 0.00 0.79 0.79 96 1019.7
20260830055024 53 0 0.0 4.0 0.00 0.79 0.79 96 1019.7
20260830054548 53 0 0.0 4.0 0.00 0.79 0.79 95 1019.8
20260830054021 53 0 0.0 2.0 0.00 0.79 0.79 95 1019.8
20260830053522 53 0 0.0 2.0 0.00 0.79 0.79 95 1019.9
20260830053045 53 183 0.0 4.0 0.00 0.79 0.79 95 1019.9
20260830052523 53 0 0.0 5.0 0.00 0.79 0.79 95 1020.0
20260830052023 53 173 1.0 5.0 0.00 0.79 0.79 95 1020.0
20260830051544 53 0 0.0 2.0 0.00 0.79 0.79 95 1020.0
20260830051024 53 0 0.0 2.0 0.00 0.79 0.79 95 1019.8
20260830050525 53 0 0.0 2.0 0.00 0.79 0.79 95 1019.7
20260830050052 53 0 0.0 2.0 0.00 0.79 0.79 95 1019.8
20260830045524 53 0 0.0 1.0 0.00 0.79 0.79 95 1019.9
20260830045022 53 0 0.0 1.0 0.00 0.79 0.79 95 1020.0
20260830044600 54 0 0.0 1.0 0.00 0.79 0.79 95 1020.0
20260830044023 54 107 0.0 1.0 0.00 0.79 0.79 95 1020.0
20260830043527 54 0 0.0 2.0 0.00 0.79 0.79 95 1020.0
20260830043111 54 0 0.0 2.0 0.00 0.79 0.79 95 1019.8
20260830042524 54 0 0.0 1.0 0.00 0.79 0.79 95 1019.7
20260830042028 54 0 0.0 1.0 0.00 0.79 0.79 95 1019.6
20260830041553 54 0 0.0 0.0 0.00 0.79 0.79 95 1019.7
20260830041022 54 0 0.0 0.0 0.00 0.79 0.79 95 1019.6
20260830040523 54 0 0.0 0.0 0.00 0.79 0.79 95 1019.6
20260830040101 54 0 0.0 0.0 0.00 0.79 0.79 95 1019.5
20260830035524 54 0 0.0 0.0 0.00 0.79 0.79 95 1019.4
20260830035028 54 0 0.0 2.0 0.00 0.79 0.79 95 1019.4
20260830034547 54 0 0.0 2.0 0.00 0.79 0.79 95 1019.3
20260830034025 54 0 0.0 2.0 0.01 0.79 0.79 95 1019.2
20260830033526 54 0 0.0 1.0 0.01 0.79 0.79 95 1019.2
20260830033047 54 0 0.0 1.0 0.01 0.79 0.79 95 1019.1
20260830032521 54 0 0.0 0.0 0.01 0.79 0.79 94 1019.1
20260830032025 55 0 0.0 2.0 0.01 0.79 0.79 94 1018.9
20260830031546 55 0 0.0 2.0 0.01 0.79 0.79 95 1018.9
20260830031027 55 149 0.0 1.0 0.01 0.79 0.79 94 1018.9
20260830030523 55 0 0.0 1.0 0.01 0.79 0.79 94 1018.9
20260830030040 55 0 0.0 0.0 0.01 0.79 0.79 94 1018.9
20260830025523 56 0 0.0 0.0 0.01 0.79 0.79 94 1018.8
20260830025023 56 0 0.0 3.0 0.01 0.79 0.79 93 1018.8
20260830024550 56 0 0.0 3.0 0.01 0.79 0.79 93 1018.7
20260830024025 56 0 0.0 3.0 0.00 0.78 0.78 93 1018.7
20260830023523 56 109 0.0 2.0 0.00 0.78 0.78 93 1018.7
20260830023051 56 0 0.0 0.0 0.00 0.78 0.78 93 1018.8
20260830022524 57 0 0.0 0.0 0.00 0.78 0.78 93 1018.6
20260830022027 57 0 0.0 0.0 0.00 0.78 0.78 93 1018.6
20260830021547 57 0 0.0 2.0 0.00 0.78 0.78 93 1018.5
20260830021021 57 0 0.0 2.0 0.00 0.78 0.78 93 1018.4
20260830020523 57 0 0.0 0.0 0.00 0.78 0.78 93 1018.4
20260830020054 57 0 0.0 1.0 0.00 0.78 0.78 92 1018.4
20260830015521 57 0 0.0 1.0 0.00 0.78 0.78 92 1018.4
20260830015024 57 0 0.0 1.0 0.00 0.78 0.78 92 1018.4
20260830014546 57 0 0.0 1.0 0.00 0.78 0.78 92 1018.4
20260830014025 58 0 0.0 1.0 0.00 0.78 0.78 92 1018.4
20260830013526 58 0 0.0 1.0 0.00 0.78 0.78 91 1018.4
20260830013046 58 0 0.0 1.0 0.00 0.78 0.78 91 1018.5
20260830012527 58 0 0.0 1.0 0.00 0.78 0.78 90 1018.5
20260830012026 59 0 0.0 1.0 0.00 0.78 0.78 87 1018.5
20260830011559 59 0 0.0 1.0 0.00 0.78 0.78 83 1018.5
20260830011024 59 0 0.0 3.0 0.00 0.78 0.78 83 1018.4
20260830010519 59 0 0.0 3.0 0.00 0.78 0.78 83 1018.5
20260830010054 59 0 0.0 3.0 0.00 0.78 0.78 83 1018.5
20260830005525 59 0 0.0 3.0 0.00 0.78 0.78 83 1018.5
20260830005024 59 0 0.0 3.0 0.00 0.78 0.78 85 1018.4
20260830004546 59 0 0.0 3.0 0.00 0.78 0.78 84 1018.4
20260830004024 59 0 0.0 3.0 0.00 0.78 0.78 90 1018.4
20260830003525 59 0 0.0 1.0 0.00 0.78 0.78 90 1018.4
20260830003040 59 0 0.0 1.0 0.00 0.78 0.78 91 1018.5
20260830002523 59 0 0.0 0.0 0.00 0.78 0.78 90 1018.5